パンスターズ彗星

P/2015 R2 ( PanSTARRS )

English version
Home page
Updated on September 26, 2015

---------------------------------------------------------------------

・ プロフィール

発見日 2015年9月9日
発見光度 21.7等
発見者 Pan-STARRS 1 telescope (Haleakala)

・ 写真集

・ 軌道要素

Epoch 2015 June 27.0 TT = JDT 2457200.5
T 2015 June 8.99235 TT                                  MPCW
q   2.4678352            (2000.0)            P               Q
n   0.10336205     Peri.  149.77821     +0.75204344     +0.65703367
a   4.4967145      Node   168.67973     -0.64543167     +0.75019854
e   0.4511915      Incl.   15.45860     -0.13359875     +0.07422202
P   9.54
From 24 observations 2015 Sept. 9-18, mean residual 0".5.

・ 光度変化

        m1 = 15.0 + 5 logΔ + 10.0 log r

---------------------------------------------------------------------

軌道要素はM.P.E.C. 2015-S90に掲載されたものです。
光度グラフはComet for Windowsで作成したものです。

---------------------------------------------------------------------

Copyright(C) Seiichi Yoshida (comet@aerith.net). All rights reserved.